FENGYUN 3E

Last updated on Tue Sep 22 2026 00:02:53 GMT+0000 (Coordinated Universal Time)

1 49008U 21062A 26264.60021534 -.00000120 00000+0 -35640-4 0 9999 2 49008 98.7557 266.9567 0002030 135.4322 224.7017 14.19910812270266
UTC large
Height (km)
Speed (km/s)
/
Latitude / Longitude
Inclination (degrees)
Orbital Period (minutes)
Azimuth
Elevation
Range (km)
Doppler Factor

Next 0 passes for location: London (51.5072 / 0.1276)

No passes found over London.
FENGYUN 3E